GALAXY 15

导读

**GALAXY 15卫星摘要** GALAXY 15(“银河”-15)是国际通信卫星组织(ITSO)所属的地球静止轨道通信卫星,由美国轨道科学公司研发,于2005年10月13日在圭亚那航天中心发射升空。卫星设计寿命15年,载有24路C频段转发器和2路L频段转发器,定点西经133°,主要为北美地区提供视频传输等多媒体通信服务。2010年卫星失控漂移,对其他在轨卫星造成干扰。

基本信息
目录编号:
28884
目录名称:
GALAXY 15
国际标识:
2005-041A
轨道中心:
EARTH
卫星名称:
GALAXY 15
卫星全名:
--
卫星状态:
在轨 (已飞行7638 天)
发射日期:
2005-10-13 UTC
国别 :
(ITSO)
星等 :
--
该卫星已列入 空间交会检测服务 Space Conjunction Data Service (SCDS) ,当前飞行风险评估等级: 无高风险
轨道信息
数据来源 国际轨道数据 AOE轨道数据
星历时间 2026-09-11T06:35:04+0800
8小时前
查看轨道信息
2026-09-10T02:00:00+0800
1天前
查看轨道信息
半长轴 42542.548km 42542.147km
偏心率 0.0017388 0.001723
轨道倾角 3.753° 3.751°
近地点辐角 140.735° 140.196°
升交点赤经 76.248° 76.266°
平近点角 216.245° 152.540°
近地点 36090.438km 36090.709km
远地点 36238.384km 36237.311km
周期 1455.442分钟 1455.422分钟
每日圈数 0.98939 0.989404
详细信息
使用方式:
暂无
2D轨道图
3D轨道图
轨道高度分析图
轨道倾角分析图
轨道综合分析图
查看轨道综合分析图
与全量物体交会距离演化趋势
与全量物体交会风险概率演化趋势